Location: Milton
(43.5183°N, 79.8775°W)
Time: 00:11:56
(UTC+00:00)

ESTCUBE 1 - Pass Details

Date: 06 April 2023
Orbit: 640 x 654 km, 97.9° (Epoch: 28 May)

Event Time Altitude Azimuth Distance (km) Brightness Sun altitude
Exits shadow 01:54:25 14° 48° (NE) 1,808 ? -21.6°
Drops below altitude 10° 01:56:01 10° 28° (NNE) 2,074 ? -21.9°
Sets 01:59:05 0° 5° (N) 2,988 ? -22.4°
